Total_Precipitation_Accumulation
1.17 1.29 1.59 1.37 1.21 1.16 1.23 1.29 1.21 1.21 1.31 1.38 1.36 1.42 1.58 1.72 1.77 1.81 1.90 1.98 2.10 2.15 2.02 1.95 1.88 2.00 2.04 1.93 1.67 1.49 1.40 1.49 1.43 1.29 1.13 1.15 1.25 1.49 1.85 1.99 1.89 1.35 1.28
0.93 1.20 1.41 1.24 1.11 1.11 1.11 1.11 1.09 1.10 1.20 1.27 1.29 1.39 1.52 1.57 1.60 1.62 1.73 1.94 2.09 2.08 1.94 1.80 1.71 1.87 1.89 1.83 1.63 1.46 1.36 1.47 1.43 1.43 1.26 1.08 1.30 1.68 1.96 2.00 2.04 1.41 1.32
0.66 0.93 1.00 1.07 0.98 1.00 1.05 1.12 1.24 1.23 1.26 1.25 1.29 1.36 1.40 1.42 1.49 1.56 1.66 1.76 1.83 1.67 1.56 1.52 1.55 1.60 1.56 1.57 1.51 1.41 1.39 1.36 1.46 1.64 1.76 1.14 0.99 1.61 1.82 1.85 1.73 1.31 1.16
0.57 0.72 0.74 0.82 0.79 0.78 0.88 1.07 1.18 1.25 1.28 1.27 1.31 1.34 1.31 1.39 1.48 1.51 1.49 1.47 1.39 1.18 1.12 1.21 1.31 1.35 1.35 1.30 1.31 1.38 1.42 1.45 1.66 2.07 2.13 1.36 0.95 1.28 1.58 1.51 1.36 1.17 1.02
0.54 0.64 0.72 0.69 0.64 0.62 0.71 0.86 1.02 1.15 1.16 1.18 1.22 1.26 1.33 1.38 1.38 1.38 1.30 1.25 1.18 1.10 0.99 1.00 1.17 1.28 1.28 1.21 1.23 1.35 1.44 1.54 1.86 2.02 1.77 1.64 1.50 1.47 1.50 1.43 1.30 1.18 1.10
0.35 0.44 0.56 0.60 0.54 0.56 0.70 0.84 0.90 0.98 1.02 1.08 1.20 1.36 1.38 1.39 1.41 1.33 1.17 1.10 1.09 1.03 0.92 0.95 1.18 1.34 1.34 1.21 1.20 1.39 1.53 1.78 1.90 1.53 1.35 1.42 1.53 1.61 1.54 1.59 1.58 1.41 1.30
0.21 0.29 0.42 0.56 0.52 0.51 0.59 0.75 0.90 1.02 1.10 1.18 1.29 1.29 1.29 1.33 1.25 1.13 0.98 0.90 0.90 0.88 0.83 0.90 1.12 1.35 1.47 1.41 1.34 1.48 1.59 1.83 1.65 1.33 1.25 1.43 1.42 1.37 1.48 1.66 1.88 1.72 1.46
0.14 0.19 0.31 0.50 0.52 0.51 0.53 0.64 0.85 1.04 1.21 1.26 1.17 1.05 1.05 1.04 0.95 0.86 0.76 0.72 0.71 0.63 0.66 0.80 1.01 1.10 1.34 1.52 1.52 1.56 1.54 1.48 1.15 1.12 1.09 1.17 0.98 1.12 1.40 1.63 1.82 1.76 1.51
0.20 0.18 0.25 0.35 0.40 0.41 0.49 0.58 0.70 0.77 0.87 0.91 0.89 0.88 0.90 0.88 0.75 0.69 0.63 0.62 0.60 0.65 0.74 0.90 1.03 1.05 1.30 1.51 1.50 1.46 1.55 1.39 1.05 1.13 1.10 1.22 1.13 1.33 1.65 1.74 1.69 1.74 1.58
0.42 0.36 0.39 0.38 0.42 0.41 0.38 0.47 0.57 0.61 0.65 0.71 0.74 0.75 0.70 0.67 0.65 0.63 0.57 0.62 0.59 0.65 0.79 1.04 1.22 1.19 1.35 1.49 1.56 1.67 1.82 1.52 1.19 1.19 1.28 1.17 1.26 1.57 1.93 1.99 1.89 1.87 1.79
0.82 0.70 0.60 0.56 0.47 0.41 0.36 0.39 0.54 0.58 0.62 0.64 0.67 0.68 0.70 0.73 0.69 0.74 0.66 0.80 0.79 0.83 0.88 1.08 1.33 1.57 1.61 1.55 1.75 1.92 1.86 1.64 1.64 1.53 1.47 1.26 1.37 1.75 2.05 2.08 2.09 2.12 2.02
1.04 0.96 0.86 0.80 0.57 0.47 0.46 0.63 0.76 0.69 0.76 0.85 0.90 0.90 1.01 1.12 1.08 0.79 0.89 1.16 1.23 1.35 1.34 1.41 1.63 1.74 1.69 1.77 2.31 2.46 1.86 1.79 1.71 1.67 1.81 1.64 1.72 2.09 2.38 2.22 2.11 2.20 2.15
1.25 1.00 0.99 1.16 0.98 0.83 0.89 0.84 0.86 0.92 1.08 1.11 1.05 1.10 1.30 1.12 0.95 0.96 1.10 1.32 1.51 1.65 1.84 2.11 2.29 2.05 2.16 2.47 2.71 2.50 1.93 1.65 1.67 1.62 1.89 1.94 2.02 2.41 2.77 2.59 2.36 2.35 2.33
1.44 1.13 1.01 1.12 1.27 1.20 1.09 1.07 1.02 1.00 1.09 1.15 1.30 1.30 1.43 1.40 1.35 1.41 1.67 1.78 1.95 2.11 2.49 2.55 2.90 2.69 2.46 2.40 2.52 2.39 2.12 1.97 1.84 1.97 2.16 1.87 2.02 2.51 3.01 3.01 2.83 2.67 2.51
1.73 1.50 1.31 1.21 1.36 1.40 1.37 1.32 1.20 1.19 1.22 1.41 1.56 1.60 1.67 1.75 1.92 2.06 2.07 2.28 2.24 2.32 2.53 2.88 2.93 3.14 3.21 3.22 2.98 2.64 2.53 2.36 2.15 2.25 2.35 2.25 2.19 2.40 2.91 3.32 3.21 2.98 2.69
2.19 2.02 1.73 1.50 1.42 1.47 1.49 1.54 1.60 1.57 1.73 1.80 1.93 1.98 2.13 2.32 2.50 2.71 2.73 2.76 2.54 2.51 2.79 3.05 3.17 3.70 3.67 3.54 3.10 2.83 2.61 2.52 2.30 2.19 2.37 2.50 2.22 2.20 2.57 3.26 3.54 3.33 3.12
2.47 2.44 2.28 2.11 2.04 2.09 2.21 2.16 2.04 2.18 2.28 2.37 2.46 2.50 2.57 2.67 2.91 3.07 3.01 2.90 2.86 2.83 3.03 3.24 3.42 3.61 3.45 3.33 3.17 2.97 2.78 2.54 2.22 2.19 2.23 2.43 2.33 2.21 2.46 2.86 3.29 3.37 3.42
2.59 2.90 2.94 2.74 2.87 2.97 3.10 3.03 2.77 2.77 2.79 2.82 2.79 2.81 2.83 2.91 3.06 3.38 3.17 3.00 3.30 3.10 3.27 3.72 3.75 3.79 3.77 3.56 3.36 3.08 2.86 2.62 2.15 2.03 2.03 2.33 2.70 2.33 2.46 2.81 3.00 3.09 3.53
2.75 3.21 3.41 3.49 3.66 3.66 3.68 3.62 3.54 3.42 3.29 3.06 3.08 3.05 2.90 2.88 2.97 3.27 3.16 3.22 3.28 3.50 3.55 3.31 3.85 3.96 3.88 3.70 3.13 2.92 2.55 2.36 2.15 1.93 2.04 2.13 2.50 2.37 2.41 2.52 2.76 2.93 3.50
3.16 3.54 4.01 4.17 4.24 4.00 3.87 3.82 3.67 3.43 3.27 3.13 3.13 3.04 2.80 2.83 2.86 3.27 3.11 3.07 3.14 3.47 3.48 3.47 3.83 3.84 3.61 3.60 2.91 2.64 2.44 2.03 2.01 2.07 1.89 2.01 2.16 1.88 2.03 2.33 2.81 2.53 2.78
3.71 3.96 4.23 4.61 4.71 4.46 4.39 4.33 4.21 3.89 3.74 3.42 3.03 2.67 2.57 2.57 2.73 3.15 2.87 3.17 3.08 3.19 3.24 3.26 3.52 3.64 3.34 3.39 3.38 2.91 2.27 1.83 1.80 1.80 1.83 1.92 1.88 1.94 2.32 2.68 2.86 2.85 2.68
3.54 4.02 4.34 4.33 4.21 3.94 4.03 4.32 4.54 4.50 4.02 3.43 3.07 2.92 2.57 2.48 2.56 2.72 2.92 2.81 2.83 3.02 3.05 3.08 3.36 3.32 2.96 3.08 3.31 3.34 2.69 2.33 1.87 1.43 1.75 1.85 1.86 2.11 2.22 2.29 2.63 2.95 2.94
2.97 3.47 3.60 3.45 3.37 3.22 3.28 3.59 3.81 4.04 3.78 3.41 3.10 2.86 2.57 2.45 2.39 2.47 2.63 2.65 2.65 2.56 2.79 2.99 2.93 2.95 2.86 2.84 2.93 3.29 3.01 2.60 2.15 1.65 1.49 1.58 1.83 2.03 2.05 2.19 2.23 2.47 2.60
2.11 2.36 2.53 2.71 2.78 2.77 2.80 2.98 3.19 3.35 3.28 3.12 3.00 2.76 2.51 2.26 2.17 2.20 2.26 2.27 2.32 2.31 2.60 2.41 2.42 2.70 2.90 2.76 2.70 2.70 2.74 2.82 2.70 2.12 1.62 1.54 1.74 1.87 1.88 1.83 1.97 2.21 2.23
1.82 2.03 2.24 2.53 2.66 2.71 2.67 2.76 2.97 3.23 3.20 2.94 2.72 2.66 2.49 2.27 2.03 1.93 2.07 2.12 2.12 2.10 2.21 2.27 2.54 2.55 2.65 2.62 2.57 2.56 2.69 2.74 2.58 2.39 2.04 1.87 1.79 1.61 1.61 1.71 1.84 2.05 2.16
1.65 1.88 2.10 2.31 2.27 2.33 2.41 2.44 2.46 2.56 2.65 2.53 2.40 2.33 2.17 2.00 1.85 1.84 1.92 2.05 2.01 1.99 2.13 2.21 2.29 2.32 2.40 2.46 2.41 2.38 2.59 2.49 2.44 2.53 2.22 2.06 1.97 1.68 1.64 1.69 1.72 1.87 1.94